User: anonymous   Login
Location: RyutenAO
(34.8939°N, 134.0022°E)
Time: 13:41:55
(UTC+09:00)
Language:

NOAA 19 - Orbit

View from above orbital plane
View from above orbital plane
View from above satellite
View from above satellite

Ground track
Ground track

The orbit data is extracted from the following two-line orbital elements,

1 33591U 09005A   23081.84791114  .00000285  00000-0  17846-3 0  9998
2 33591  99.1118 126.3524 0014777 124.2630 235.9943 14.12715010727754
Epoch (UTC): 22 March 2023 20:20:59
Eccentricity: 0.0014777
inclination: 99.1118°
perigee height: 839 km
apogee height: 861 km
right ascension of ascending node: 126.3524°
argument of perigee: 124.2630°
revolutions per day: 14.12715010
mean anomaly at epoch: 235.9943°
orbit number at epoch: 72775

The dashed part of the orbit path shows where the satellite is in the earth's shadow,  

DLR